Weather History for KLBF - June, 2013

Change the Weather History Date:

Friday, June 14, 2013

  Actual Average Record
Temperature  
Mean Temperature 79 °F 68 °F  
Max Temperature 92 °F 81 °F 101 °F (1952)
Min Temperature 65 °F 54 °F 39 °F (2002)
Degree Days  
Heating Degree Days 0 2  
Month to date heating degree days 47 39  
Since 1 June heating degree days 47 39  
Since 1 July heating degree days 6763 6674  
Cooling Degree Days 14 4  
Month to date cooling degree days 46 41  
Year to date cooling degree days 94 69  
Since 1 June cooling degree days 46 41  
Growing Degree Days 28 (Base 50)    
Moisture  
Dew Point 59 °F    
Average Humidity 51    
Maximum Humidity 73    
Minimum Humidity 28    
Precipitation  
Precipitation T in 0.11 in 1.44 in (1901)
Month to date precipitation 0.47 1.73  
Year to date precipitation 6.63 9.17  
Snow  
Snow 0.00 in 0.00 in 0.00 in ()
Month to date snowfall 0.0 0.0  
Since 1 June snowfall 0.0 0.0  
Since 1 July snowfall 30.2 28.5  
Snow Depth 0.00 in    
Sea Level Pressure  
Sea Level Pressure 29.77 in    
Wind  
Wind Speed 11 mph (ESE)    
Max Wind Speed 29 mph    
Max Gust Speed 39 mph    
Visibility 10 miles    
Events      
T = Trace of Precipitation, MM = Missing Value Source: NWS Daily Summary

Daily Weather History Graph

Daily Weather History Graph

Search for Another Location

Airport or City:

Trip Planner

Search our weather history database for the weather conditions in past years. The results will help you decide how hot, cold, wet, or windy it might be!

Date:

Astronomy

Jun. 14, 2013 Rise Set
Actual Time 6:09 AM CDT 9:16 PM CDT
Civil Twilight 5:35 AM CDT 9:50 PM CDT
Nautical Twilight 4:52 AM CDT 10:33 PM CDT
Astronomical Twilight 4:01 AM CDT 11:24 PM CDT
Moon 11:49 AM CDT (6/14) 12:21 AM CDT (6/14)
Length of Visible Light 16h 14m
Length of Day
15h 07m
Waxing Crescent, 30% of the Moon is Illuminated
Jun 14
Waxing Crescent
Jun 16
First Quarter
Jun 23
Full
Jun 29
Last Quarter
Jul 8
New

Hourly Weather History & Observations

Time (CDT) Temp. Heat Index Dew Point Humidity Pressure Visibility Wind Dir Wind Speed Gust Speed Precip Events Conditions
12:53 AM 66.9 °F - 59.0 °F 76% 29.87 in 10.0 mi ESE 8.1 mph - 0.00 in   Clear
1:53 AM 66.0 °F - 57.9 °F 75% 29.80 in 10.0 mi ENE 13.8 mph - N/A   Clear
2:53 AM 70.0 °F - 59.0 °F 68% 29.81 in 10.0 mi SSE 12.7 mph - N/A   Clear
3:00 AM 69.8 °F - 59.0 °F 68% 29.89 in 10.0 mi SSE 12.7 mph 21.9 mph N/A   Clear
3:53 AM 80.1 °F - 50.0 °F 35% 29.68 in 10.0 mi SSE 21.9 mph 39.1 mph N/A   Partly Cloudy
4:53 AM 82.0 °F - 46.0 °F 28% 29.70 in 10.0 mi SSE 15.0 mph - 0.00 in   Clear
5:53 AM 75.9 °F - 48.9 °F 38% 29.73 in 10.0 mi South 11.5 mph 17.3 mph N/A   Clear
6:53 AM 68.0 °F - 54.0 °F 61% 29.75 in 10.0 mi ESE 6.9 mph - N/A   Clear
7:53 AM 73.0 °F - 60.1 °F 64% 29.75 in 10.0 mi South 10.4 mph - N/A   Clear
8:53 AM 75.9 °F - 64.0 °F 67% 29.76 in 10.0 mi South 19.6 mph 27.6 mph N/A   Clear
9:53 AM 75.9 °F - 64.0 °F 67% 29.78 in 10.0 mi South 12.7 mph 28.8 mph N/A   Clear
10:53 AM 81.0 °F 82.5 °F 64.0 °F 56% 29.76 in 10.0 mi South 15.0 mph 23.0 mph N/A   Clear
11:53 AM 82.0 °F 83.4 °F 64.0 °F 54% 29.79 in 10.0 mi SW 13.8 mph 17.3 mph N/A   Clear
12:53 PM 87.1 °F 87.8 °F 63.0 °F 44% 29.78 in 10.0 mi WNW 11.5 mph - N/A   Clear
1:53 PM 86.0 °F 85.7 °F 60.1 °F 41% 29.78 in 10.0 mi Variable 3.5 mph - N/A   Clear
2:53 PM 88.0 °F 87.9 °F 61.0 °F 40% 29.79 in 10.0 mi Variable 3.5 mph - N/A   Clear
3:53 PM 90.0 °F 90.3 °F 62.1 °F 39% 29.75 in 10.0 mi NW 10.4 mph - N/A   Clear
4:53 PM 89.1 °F 87.3 °F 55.9 °F 32% 29.72 in 10.0 mi North 10.4 mph - N/A   Clear
5:53 PM 90.0 °F 87.7 °F 54.0 °F 29% 29.73 in 10.0 mi NE 6.9 mph - N/A   Clear
6:53 PM 88.0 °F 86.9 °F 57.9 °F 36% 29.74 in 10.0 mi NE 9.2 mph - N/A   Clear
7:53 PM 82.9 °F 83.3 °F 61.0 °F 47% 29.76 in 10.0 mi ENE 4.6 mph - N/A   Clear
8:53 PM 77.0 °F - 61.0 °F 58% 29.77 in 10.0 mi NNE 5.8 mph - N/A   Clear
9:53 PM 73.9 °F - 59.0 °F 59% 29.79 in 10.0 mi NE 8.1 mph - N/A   Clear
10:53 PM 75.0 °F - 59.0 °F 57% 29.79 in 10.0 mi NNE 16.1 mph - N/A   Clear
11:53 PM 73.9 °F - 61.0 °F 64% 29.86 in 10.0 mi SSE 12.7 mph - N/A   Clear